CDT,Max TemperatureF,Mean TemperatureF,Min TemperatureF,Max Dew PointF,MeanDew PointF,Min DewpointF,Max Humidity, Mean Humidity, Min Humidity, Max Sea Level PressureIn, Mean Sea Level PressureIn, Min Sea Level PressureIn, Max VisibilityMiles, Mean VisibilityMiles, Min VisibilityMiles, Max Wind SpeedMPH, Mean Wind SpeedMPH, Max Gust SpeedMPH,PrecipitationIn, CloudCover, Events, WindDirDegrees
2011-10-1,57,46,35,43,37,34,100,80,47,30.35,30.30,30.22,10,9,2,12,8,22,0.00,3,,2
2011-10-2,66,48,30,46,37,30,100,76,34,30.30,30.24,30.16,10,8,0,10,2,,0.00,0,Fog,292
2011-10-3,64,54,43,54,45,40,97,81,54,30.26,30.23,30.15,10,10,10,10,4,,0.00,0,,21
2011-10-4,72,55,39,50,45,38,97,74,40,30.30,30.26,30.22,10,9,4,7,1,,0.00,0,,177
2011-10-5,75,59,43,55,48,42,97,72,38,30.26,30.23,30.20,10,9,4,10,2,,0.00,0,,140
2011-10-6,75,58,42,58,47,42,100,90,42,30.28,30.24,30.22,10,3,0,10,1,,0.00,1,Fog,157
2011-10-7,72,59,46,59,51,46,100,89,59,30.30,30.24,30.18,10,4,0,14,2,,0.01,0,Fog,172
2011-10-8,81,68,55,59,55,51,89,71,38,30.28,30.24,30.18,10,10,8,16,8,18,0.00,0,,182
2011-10-9,78,64,50,57,52,47,96,75,45,30.35,30.30,30.27,10,9,4,12,5,,0.00,0,,186
2011-10-10,70,58,46,57,51,46,100,88,54,30.26,30.15,30.06,10,5,0,13,2,20,0.00,0,Fog,153
2011-10-11,75,63,51,59,54,51,100,84,50,30.05,30.00,29.93,10,6,1,12,2,,0.00,2,,163
2011-10-12,73,63,53,57,54,51,100,84,48,29.92,29.83,29.69,10,6,0,12,3,,0.00,2,Fog,120
2011-10-13,60,56,51,59,55,51,100,93,78,29.65,29.51,29.43,10,5,1,17,5,23,0.30,6,Rain,179
2011-10-14,54,50,46,52,41,35,94,71,54,29.56,29.49,29.43,10,10,10,22,14,34,0.00,7,Rain,286
2011-10-15,57,52,46,36,34,33,59,52,41,29.79,29.68,29.55,10,10,10,24,19,40,0.00,2,,279
2011-10-16,60,52,46,39,32,24,71,47,29,29.79,29.73,29.68,10,10,10,20,12,32,0.00,2,Rain,275
2011-10-17,60,51,43,31,29,25,62,45,29,29.78,29.73,29.69,10,10,10,25,15,32,0.00,0,,270
2011-10-18,51,43,36,39,35,30,82,70,58,29.92,29.85,29.76,10,10,10,12,6,20,0.00,5,,349
2011-10-19,48,42,39,43,38,35,93,80,66,29.91,29.82,29.67,10,10,4,22,13,33,0.10,8,Rain,5
2011-10-20,45,44,42,38,36,34,85,78,71,29.86,29.68,29.57,10,10,8,22,17,37,0.07,8,Rain,337
2011-10-21,52,42,30,37,34,31,100,80,52,30.06,30.01,29.88,10,10,6,10,6,16,0.00,3,,290
2011-10-22,63,47,32,43,36,30,96,73,41,30.04,30.03,30.00,10,10,6,7,3,,0.00,0,,238
2011-10-23,61,45,30,48,40,31,100,85,41,29.99,29.92,29.78,10,6,0,15,2,21,0.11,4,Fog-Rain-Thunderstorm,220
2011-10-24,62,51,41,45,39,36,93,70,39,30.09,29.98,29.84,10,10,10,18,9,28,0.00,1,,271
2011-10-25,53,48,43,50,46,39,96,88,82,30.08,29.93,29.81,10,10,8,21,9,28,0.06,7,Rain,58
2011-10-26,48,44,39,43,40,35,97,84,66,30.01,29.95,29.88,10,8,2,21,13,30,0.00,7,Rain,4
2011-10-27,50,39,30,36,33,29,96,79,54,30.15,30.06,29.99,10,10,6,10,6,,0.02,3,Rain,318
2011-10-28,53,38,26,38,30,22,100,70,32,30.17,30.09,30.00,10,9,6,6,1,,0.00,5,,228
2011-10-29,51,40,28,37,30,26,96,77,39,30.12,30.05,29.99,10,9,5,10,2,,0.00,1,,303
2011-10-30,50,38,25,45,37,23,100,85,57,30.12,29.96,29.87,10,9,5,17,6,30,0.07,6,Rain,185
2011-10-31,48,40,33,43,38,34,100,89,66,30.12,29.99,29.89,10,6,0,10,5,16,0.00,7,Fog,234